TimeAKST,TemperatureF,Dew PointF,Humidity,Sea Level PressureIn,VisibilityMPH,Wind Direction,Wind SpeedMPH,Gust SpeedMPH,PrecipitationIn,Events,Conditions,WindDirDegrees,DateUTC
12:11 AM,44.6,39.2,81,30.07,7.0,ESE,9.2,-,0.01,Rain,Light Rain,110,2013-01-21 09:11:00
12:53 AM,44.1,39.9,85,30.06,6.0,ESE,8.1,-,0.02,Rain,Light Rain,110,2013-01-21 09:53:00
1:53 AM,45.0,39.9,82,30.05,8.0,East,9.2,-,0.01,Rain,Light Rain,100,2013-01-21 10:53:00
2:53 AM,46.0,39.0,76,30.05,10.0,SE,11.5,-,0.00,,Overcast,130,2013-01-21 11:53:00
3:53 AM,46.0,39.0,76,30.05,10.0,ESE,11.5,-,N/A,,Overcast,120,2013-01-21 12:53:00
4:53 AM,45.0,39.0,80,30.04,10.0,SE,10.4,-,N/A,,Overcast,130,2013-01-21 13:53:00
5:53 AM,44.1,39.0,82,30.03,7.0,SSE,6.9,-,0.00,Rain,Light Rain,150,2013-01-21 14:53:00
6:12 AM,44.6,39.2,81,30.03,7.0,South,5.8,-,0.00,,Overcast,180,2013-01-21 15:12:00
6:53 AM,43.0,39.9,89,30.02,7.0,South,8.1,-,0.00,,Overcast,180,2013-01-21 15:53:00
7:08 AM,42.8,39.2,87,30.03,7.0,South,6.9,-,0.00,Rain,Light Rain,190,2013-01-21 16:08:00
7:51 AM,42.8,42.8,100,30.03,6.0,East,3.5,-,0.01,Rain,Light Rain,100,2013-01-21 16:51:00
7:53 AM,43.0,42.1,97,30.03,6.0,Calm,Calm,-,0.01,Rain,Light Rain,0,2013-01-21 16:53:00
8:08 AM,42.8,42.8,100,30.03,7.0,ESE,4.6,-,0.00,,Overcast,120,2013-01-21 17:08:00
8:49 AM,42.8,41.0,93,30.03,7.0,Calm,Calm,-,0.00,,Overcast,0,2013-01-21 17:49:00
8:53 AM,43.0,41.0,93,30.03,7.0,East,3.5,-,0.00,,Overcast,100,2013-01-21 17:53:00
9:53 AM,42.1,41.0,96,30.03,9.0,Calm,Calm,-,N/A,,Overcast,0,2013-01-21 18:53:00
10:53 AM,43.0,42.1,97,30.02,10.0,NNW,4.6,-,N/A,,Overcast,330,2013-01-21 19:53:00
11:53 AM,42.1,41.0,96,30.01,10.0,Calm,Calm,-,N/A,,Overcast,0,2013-01-21 20:53:00
12:53 PM,42.1,41.0,96,29.99,10.0,Calm,Calm,-,N/A,,Overcast,0,2013-01-21 21:53:00
1:53 PM,43.0,42.1,97,29.96,10.0,North,3.5,-,N/A,,Overcast,350,2013-01-21 22:53:00
2:53 PM,43.0,42.1,97,29.94,10.0,Calm,Calm,-,N/A,,Overcast,0,2013-01-21 23:53:00
3:53 PM,42.1,41.0,96,29.91,10.0,Calm,Calm,-,N/A,,Overcast,0,2013-01-22 00:53:00
4:53 PM,41.0,41.0,100,29.89,10.0,NW,5.8,-,N/A,,Overcast,310,2013-01-22 01:53:00
5:53 PM,41.0,41.0,100,29.87,10.0,NW,5.8,-,N/A,,Overcast,320,2013-01-22 02:53:00
6:53 PM,41.0,39.9,96,29.86,10.0,North,3.5,-,N/A,,Overcast,350,2013-01-22 03:53:00
7:53 PM,39.9,39.0,97,29.81,10.0,NNW,6.9,-,N/A,,Overcast,330,2013-01-22 04:53:00
8:53 PM,39.9,39.0,97,29.82,10.0,North,6.9,-,N/A,,Overcast,350,2013-01-22 05:53:00
9:53 PM,39.9,39.0,97,29.77,10.0,NNW,6.9,-,N/A,,Overcast,330,2013-01-22 06:53:00
10:53 PM,39.9,39.0,97,29.78,10.0,NNW,6.9,-,N/A,,Overcast,330,2013-01-22 07:53:00
11:53 PM,39.0,39.0,100,29.76,10.0,Calm,Calm,-,N/A,,Clear,0,2013-01-22 08:53:00